Location: Eschentzwiller
(47.7125°N, 7.3981°E)
Time: 01:01:09
(UTC+00:00)

Meteor 2-16 Rocket - Pass Details

Date: 27 October 2020
Orbit: 941 x 956 km, 82.6° (Epoch: 26 November)

Event Time Altitude Azimuth Distance (km) Brightness Sun altitude
Rises 17:21:08 0° 350° (N) 3,618 7.5 -10.8°
Reaches altitude 10° 17:23:38 10° 351° (N) 2,670 6.8 -11.2°
Maximum altitude 17:29:45 89° 77° (ENE) 950 4.4 -12.2°
Drops below altitude 10° 17:35:50 10° 172° (S) 2,657 6.8 -13.3°
Sets 17:38:19 0° 173° (S) 3,599 7.4 -13.7°
